Time,TemperatureF,DewpointF,PressureIn,WindDirection,WindDirectionDegrees,WindSpeedMPH,WindSpeedGustMPH,Humidity,HourlyPrecipIn,Conditions,Clouds,dailyrainin,SoftwareType,DateUTC
2013-03-26 00:03:00,31.7,23.0,29.61,WNW,296,2.0,5.0,71,0.00,,,0.01,weatherlink.com 1.10,2013-03-26 04:03:00,
2013-03-26 00:18:00,31.6,23.0,29.62,WNW,296,0.0,4.0,71,0.00,,,0.01,weatherlink.com 1.10,2013-03-26 04:18:00,
2013-03-26 00:33:00,31.4,23.0,29.62,WNW,296,0.0,3.0,72,0.00,,,0.01,weatherlink.com 1.10,2013-03-26 04:33:00,
2013-03-26 00:49:00,31.4,23.0,29.62,NNW,331,0.0,2.0,72,0.00,,,0.01,weatherlink.com 1.10,2013-03-26 04:49:00,
2013-03-26 01:05:00,31.6,24.0,29.62,WNW,298,1.0,5.0,72,0.00,,,0.01,weatherlink.com 1.10,2013-03-26 05:05:00,
2013-03-26 01:19:00,31.7,24.0,29.62,NNW,340,2.0,5.0,73,0.00,,,0.01,weatherlink.com 1.10,2013-03-26 05:19:00,
2013-03-26 01:34:00,31.4,25.0,29.63,NNW,346,5.0,8.0,78,0.00,,,0.01,weatherlink.com 1.10,2013-03-26 05:34:00,
2013-03-26 01:49:00,30.8,26.0,29.63,NNW,339,3.0,7.0,81,0.00,,,0.01,weatherlink.com 1.10,2013-03-26 05:49:00,
2013-03-26 02:04:00,30.6,26.0,29.63,North,355,0.0,4.0,82,0.00,,,0.01,weatherlink.com 1.10,2013-03-26 06:04:00,
2013-03-26 02:19:00,30.6,26.0,29.63,NNW,347,2.0,4.0,82,0.00,,,0.01,weatherlink.com 1.10,2013-03-26 06:19:00,
2013-03-26 02:34:00,30.6,26.0,29.63,NW,304,3.0,5.0,82,0.00,,,0.01,weatherlink.com 1.10,2013-03-26 06:34:00,
2013-03-26 02:49:00,30.6,26.0,29.63,NW,320,4.0,7.0,82,0.00,,,0.01,weatherlink.com 1.10,2013-03-26 06:49:00,
2013-03-26 03:04:00,30.5,26.0,29.63,NNW,330,2.0,6.0,82,0.00,,,0.01,weatherlink.com 1.10,2013-03-26 07:04:00,
2013-03-26 03:19:00,30.3,26.0,29.63,NW,315,4.0,4.0,83,0.00,,,0.01,weatherlink.com 1.10,2013-03-26 07:19:00,
2013-03-26 03:35:00,30.2,26.0,29.63,NW,326,3.0,6.0,84,0.00,,,0.01,weatherlink.com 1.10,2013-03-26 07:35:00,
2013-03-26 03:50:00,30.0,26.0,29.63,NNW,329,2.0,5.0,84,0.00,,,0.01,weatherlink.com 1.10,2013-03-26 07:50:00,
2013-03-26 04:05:00,30.1,26.0,29.64,NNW,342,4.0,6.0,84,0.00,,,0.01,weatherlink.com 1.10,2013-03-26 08:05:00,
2013-03-26 04:20:00,29.8,26.0,29.64,NNW,335,2.0,4.0,84,0.00,,,0.01,weatherlink.com 1.10,2013-03-26 08:20:00,
2013-03-26 04:35:00,29.9,26.0,29.64,WNW,299,2.0,6.0,84,0.00,,,0.01,weatherlink.com 1.10,2013-03-26 08:35:00,
2013-03-26 04:50:00,29.8,26.0,29.65,NW,321,2.0,5.0,84,0.00,,,0.01,weatherlink.com 1.10,2013-03-26 08:50:00,
2013-03-26 05:11:00,29.9,25.0,29.65,NNW,332,1.0,5.0,83,0.00,,,0.00,weatherlink.com 1.10,2013-03-26 09:11:00,
2013-03-26 05:20:00,29.7,25.0,29.66,WNW,297,4.0,5.0,83,0.00,,,0.00,weatherlink.com 1.10,2013-03-26 09:20:00,
2013-03-26 05:35:00,29.6,25.0,29.66,NNW,343,0.0,4.0,83,0.00,,,0.00,weatherlink.com 1.10,2013-03-26 09:35:00,
2013-03-26 05:51:00,29.5,25.0,29.66,NNW,344,0.0,2.0,84,0.00,,,0.00,weatherlink.com 1.10,2013-03-26 09:51:00,
2013-03-26 06:06:00,29.5,25.0,29.66,NNW,344,0.0,1.0,84,0.00,,,0.00,weatherlink.com 1.10,2013-03-26 10:06:00,
2013-03-26 06:21:00,29.6,25.0,29.67,NNW,344,0.0,4.0,83,0.00,,,0.00,weatherlink.com 1.10,2013-03-26 10:21:00,
2013-03-26 06:51:00,29.3,25.0,29.68,NNW,344,0.0,0.0,84,0.00,,,0.00,weatherlink.com 1.10,2013-03-26 10:51:00,
2013-03-26 07:06:00,29.5,25.0,29.69,North,351,3.0,5.0,83,0.00,,,0.00,weatherlink.com 1.10,2013-03-26 11:06:00,
2013-03-26 07:21:00,29.8,25.0,29.70,NNW,347,4.0,6.0,82,0.00,,,0.00,weatherlink.com 1.10,2013-03-26 11:21:00,
2013-03-26 07:37:00,29.8,25.0,29.70,NNW,345,3.0,4.0,82,0.00,,,0.00,weatherlink.com 1.10,2013-03-26 11:37:00,
2013-03-26 07:52:00,30.1,25.0,29.71,NW,308,3.0,6.0,81,0.00,,,0.00,weatherlink.com 1.10,2013-03-26 11:52:00,
2013-03-26 08:07:00,30.4,25.0,29.71,WNW,299,4.0,8.0,80,0.00,,,0.00,weatherlink.com 1.10,2013-03-26 12:07:00,
2013-03-26 08:22:00,30.6,25.0,29.71,NW,317,4.0,7.0,80,0.00,,,0.00,weatherlink.com 1.10,2013-03-26 12:22:00,
2013-03-26 08:37:00,30.8,25.0,29.72,NW,311,8.0,9.0,80,0.00,,,0.00,weatherlink.com 1.10,2013-03-26 12:37:00,
2013-03-26 08:52:00,31.0,25.0,29.72,NNW,329,4.0,9.0,79,0.00,,,0.00,weatherlink.com 1.10,2013-03-26 12:52:00,
2013-03-26 09:07:00,31.3,26.0,29.73,NW,313,4.0,9.0,80,0.00,,,0.00,weatherlink.com 1.10,2013-03-26 13:07:00,
2013-03-26 09:22:00,31.7,26.0,29.72,WNW,297,8.0,11.0,79,0.00,,,0.00,weatherlink.com 1.10,2013-03-26 13:22:00,
2013-03-26 09:37:00,31.9,26.0,29.73,WNW,302,9.0,10.0,79,0.00,,,0.00,weatherlink.com 1.10,2013-03-26 13:37:00,
2013-03-26 09:53:00,32.3,26.0,29.73,NNW,336,7.0,9.0,78,0.00,,,0.00,weatherlink.com 1.10,2013-03-26 13:53:00,
2013-03-26 10:08:00,32.6,26.0,29.74,NW,325,4.0,12.0,78,0.00,,,0.00,weatherlink.com 1.10,2013-03-26 14:08:00,
2013-03-26 10:23:00,32.6,27.0,29.74,NW,307,7.0,14.0,79,0.00,,,0.00,weatherlink.com 1.10,2013-03-26 14:23:00,
2013-03-26 10:38:00,33.0,27.0,29.75,WNW,301,10.0,14.0,78,0.00,,,0.00,weatherlink.com 1.10,2013-03-26 14:38:00,
2013-03-26 10:53:00,32.8,27.0,29.75,North,349,14.0,15.0,79,0.00,,,0.00,weatherlink.com 1.10,2013-03-26 14:53:00,
2013-03-26 11:08:00,33.3,27.0,29.75,NW,312,7.0,13.0,77,0.00,,,0.00,weatherlink.com 1.10,2013-03-26 15:08:00,
2013-03-26 11:23:00,33.9,27.0,29.75,North,355,9.0,17.0,77,0.00,,,0.00,weatherlink.com 1.10,2013-03-26 15:23:00,
2013-03-26 11:38:00,34.0,28.0,29.75,NW,309,12.0,15.0,78,0.00,,,0.00,weatherlink.com 1.10,2013-03-26 15:38:00,
2013-03-26 11:54:00,32.6,29.0,29.76,NNW,338,5.0,11.0,86,0.00,,,0.00,weatherlink.com 1.10,2013-03-26 15:54:00,
2013-03-26 12:09:00,33.7,28.0,29.76,NW,304,8.0,16.0,81,0.00,,,0.00,weatherlink.com 1.10,2013-03-26 16:09:00,
2013-03-26 12:24:00,33.7,28.0,29.76,NW,317,6.0,18.0,79,0.00,,,0.00,weatherlink.com 1.10,2013-03-26 16:24:00,
2013-03-26 12:39:00,33.9,28.0,29.76,NNW,328,8.0,12.0,79,0.00,,,0.00,weatherlink.com 1.10,2013-03-26 16:39:00,
2013-03-26 12:54:00,34.9,28.0,29.75,NW,319,12.0,18.0,76,0.00,,,0.00,weatherlink.com 1.10,2013-03-26 16:54:00,
2013-03-26 13:09:00,36.0,28.0,29.75,NNW,344,14.0,21.0,72,0.00,,,0.00,weatherlink.com 1.10,2013-03-26 17:09:00,
2013-03-26 13:24:00,35.3,26.0,29.75,NW,321,10.0,17.0,70,0.00,,,0.00,weatherlink.com 1.10,2013-03-26 17:24:00,
2013-03-26 13:39:00,35.4,27.0,29.75,NNW,331,10.0,20.0,71,0.00,,,0.00,weatherlink.com 1.10,2013-03-26 17:39:00,
2013-03-26 13:54:00,35.8,26.0,29.75,North,355,8.0,18.0,68,0.00,,,0.00,weatherlink.com 1.10,2013-03-26 17:54:00,
2013-03-26 14:09:00,35.6,26.0,29.75,WNW,302,16.0,18.0,68,0.00,,,0.00,weatherlink.com 1.10,2013-03-26 18:09:00,
2013-03-26 14:25:00,36.0,26.0,29.75,NW,321,6.0,15.0,68,0.00,,,0.00,weatherlink.com 1.10,2013-03-26 18:25:00,
2013-03-26 14:40:00,36.6,26.0,29.75,NW,313,10.0,16.0,65,0.00,,,0.00,weatherlink.com 1.10,2013-03-26 18:40:00,
2013-03-26 14:55:00,37.1,24.0,29.75,NNW,333,12.0,16.0,60,0.00,,,0.00,weatherlink.com 1.10,2013-03-26 18:55:00,
2013-03-26 15:10:00,36.5,25.0,29.75,NW,308,6.0,17.0,63,0.00,,,0.00,weatherlink.com 1.10,2013-03-26 19:10:00,
2013-03-26 15:25:00,36.4,24.0,29.75,NNW,344,11.0,18.0,62,0.00,,,0.00,weatherlink.com 1.10,2013-03-26 19:25:00,
2013-03-26 15:40:00,36.5,24.0,29.75,NW,314,11.0,17.0,62,0.00,,,0.00,weatherlink.com 1.10,2013-03-26 19:40:00,
2013-03-26 15:55:00,36.9,24.0,29.75,NW,308,14.0,15.0,61,0.00,,,0.00,weatherlink.com 1.10,2013-03-26 19:55:00,
2013-03-26 16:10:00,37.0,24.0,29.75,NW,318,14.0,14.0,60,0.00,,,0.00,weatherlink.com 1.10,2013-03-26 20:10:00,
2013-03-26 16:25:00,37.4,24.0,29.76,North,355,6.0,9.0,59,0.00,,,0.00,weatherlink.com 1.10,2013-03-26 20:25:00,
2013-03-26 16:40:00,36.8,24.0,29.76,NNW,348,9.0,12.0,60,0.00,,,0.00,weatherlink.com 1.10,2013-03-26 20:40:00,
2013-03-26 16:55:00,36.1,23.0,29.77,NW,309,8.0,22.0,60,0.00,,,0.00,weatherlink.com 1.10,2013-03-26 20:55:00,
2013-03-26 17:11:00,36.0,23.0,29.77,NW,304,1.0,11.0,60,0.00,,,0.00,weatherlink.com 1.10,2013-03-26 21:11:00,
2013-03-26 17:27:00,36.3,23.0,29.77,NNW,333,6.0,9.0,60,0.00,,,0.00,weatherlink.com 1.10,2013-03-26 21:27:00,
2013-03-26 17:41:00,35.9,24.0,29.78,North,355,5.0,14.0,62,0.00,,,0.00,weatherlink.com 1.10,2013-03-26 21:41:00,
2013-03-26 17:56:00,35.1,25.0,29.79,NNE,13,6.0,8.0,67,0.00,,,0.00,weatherlink.com 1.10,2013-03-26 21:56:00,
2013-03-26 18:11:00,35.0,25.0,29.79,North,5,4.0,8.0,67,0.00,,,0.00,weatherlink.com 1.10,2013-03-26 22:11:00,
2013-03-26 18:27:00,34.9,26.0,29.80,NNW,335,2.0,13.0,69,0.00,,,0.00,weatherlink.com 1.10,2013-03-26 22:27:00,
2013-03-26 18:41:00,34.7,25.0,29.80,NW,317,5.0,13.0,68,0.00,,,0.00,weatherlink.com 1.10,2013-03-26 22:41:00,
2013-03-26 18:57:00,34.4,25.0,29.80,NW,316,8.0,9.0,68,0.00,,,0.00,weatherlink.com 1.10,2013-03-26 22:57:00,
2013-03-26 19:12:00,34.4,24.0,29.80,NNW,339,5.0,8.0,67,0.00,,,0.00,weatherlink.com 1.10,2013-03-26 23:12:00,
2013-03-26 19:27:00,33.9,24.0,29.81,NW,304,1.0,7.0,68,0.00,,,0.00,weatherlink.com 1.10,2013-03-26 23:27:00,
2013-03-26 19:42:00,34.2,23.0,29.82,NNW,331,3.0,13.0,63,0.00,,,0.00,weatherlink.com 1.10,2013-03-26 23:42:00,
2013-03-26 19:57:00,34.5,23.0,29.82,North,355,7.0,13.0,62,0.00,,,0.00,weatherlink.com 1.10,2013-03-26 23:57:00,
2013-03-26 20:12:00,34.2,24.0,29.82,West,279,7.0,15.0,66,0.00,,,0.00,weatherlink.com 1.10,2013-03-27 00:12:00,
2013-03-26 20:27:00,34.1,24.0,29.83,NW,323,8.0,12.0,66,0.00,,,0.00,weatherlink.com 1.10,2013-03-27 00:27:00,
2013-03-26 20:44:00,33.5,23.0,29.84,NW,306,5.0,9.0,66,0.00,,,0.00,weatherlink.com 1.10,2013-03-27 00:44:00,
2013-03-26 20:57:00,32.9,23.0,29.84,NW,304,4.0,9.0,67,0.00,,,0.00,weatherlink.com 1.10,2013-03-27 00:57:00,
2013-03-26 21:12:00,32.5,23.0,29.85,NW,321,7.0,10.0,68,0.00,,,0.00,weatherlink.com 1.10,2013-03-27 01:12:00,
2013-03-26 21:27:00,32.1,23.0,29.85,NW,304,5.0,9.0,68,0.00,,,0.00,weatherlink.com 1.10,2013-03-27 01:27:00,
2013-03-26 21:42:00,31.5,23.0,29.86,WNW,295,3.0,8.0,70,0.00,,,0.00,weatherlink.com 1.10,2013-03-27 01:42:00,
2013-03-26 21:58:00,31.2,22.0,29.86,NW,325,7.0,8.0,70,0.00,,,0.00,weatherlink.com 1.10,2013-03-27 01:58:00,
2013-03-26 22:13:00,30.8,22.0,29.86,NW,315,5.0,8.0,70,0.00,,,0.00,weatherlink.com 1.10,2013-03-27 02:13:00,
2013-03-26 22:28:00,30.3,22.0,29.86,NNW,331,4.0,8.0,70,0.00,,,0.00,weatherlink.com 1.10,2013-03-27 02:28:00,
2013-03-26 22:43:00,29.6,22.0,29.86,NW,314,4.0,9.0,72,0.00,,,0.00,weatherlink.com 1.10,2013-03-27 02:43:00,
2013-03-26 22:59:00,30.3,22.0,29.86,WNW,295,2.0,8.0,70,0.00,,,0.00,weatherlink.com 1.10,2013-03-27 02:59:00,
2013-03-26 23:13:00,30.1,21.0,29.86,WNW,292,3.0,8.0,70,0.00,,,0.00,weatherlink.com 1.10,2013-03-27 03:13:00,
2013-03-26 23:28:00,30.0,22.0,29.86,NW,325,3.0,7.0,71,0.00,,,0.00,weatherlink.com 1.10,2013-03-27 03:28:00,
2013-03-26 23:43:00,29.7,21.0,29.87,NW,321,7.0,11.0,71,0.00,,,0.00,weatherlink.com 1.10,2013-03-27 03:43:00,
2013-03-26 23:58:00,29.6,21.0,29.87,NW,305,9.0,11.0,71,0.00,,,0.00,weatherlink.com 1.10,2013-03-27 03:58:00,